Location: Deuil
(48.9767°N, 2.3272°E)
Time: 00:03:24
(UTC+00:00)

Cosmos 2228 - Pass Details

Date: 02 June 2022
Orbit: 586 x 617 km, 82.5° (Epoch: 03 July)

Event Time Altitude Azimuth Distance (km) Brightness Sun altitude
Rises 01:41:47 0° 348° (NNW) 2,884 7.3 -14.5°
Reaches altitude 10° 01:44:02 10° 345° (NNW) 1,970 6.3 -14.3°
Maximum altitude 01:48:21 67° 264° (W) 658 3.0 -14.0°
Enters shadow 01:51:15 20° 185° (S) 1,409 4.3 -13.8°
